Date,TemperatureHighF,TemperatureAvgF,TemperatureLowF,DewpointHighF,DewpointAvgF,DewpointLowF,HumidityHigh,HumidityAvg,HumidityLow,PressureMaxIn,PressureMinIn,WindSpeedMaxMPH,WindSpeedAvgMPH,GustSpeedMaxMPH,PrecipitationSumIn
2013-1-1,49,46,43,45,38,25,90,76,48,30.03,29.85,7,0,8,0.20
2013-1-2,48,43,38,45,40,35,91,89,83,30.12,29.85,4,0,5,0.30
2013-1-3,44,38,28,36,33,23,92,84,67,30.19,30.08,3,0,4,0.00
2013-1-4,51,37,25,31,24,18,85,63,30,30.24,30.11,4,0,8,0.00
2013-1-5,50,36,25,29,22,17,76,59,32,30.32,30.19,4,0,4,0.00
2013-1-6,49,41,33,36,33,28,85,74,59,30.19,29.99,3,0,4,0.01
2013-1-7,54,37,28,36,27,22,87,69,40,30.37,30.10,8,0,10,0.01
2013-1-8,53,38,26,37,30,20,86,73,50,30.40,29.19,2,0,4,0.00
2013-1-9,70,48,32,48,39,27,88,73,46,30.37,30.27,3,0,6,0.00
2013-1-10,65,50,42,46,40,32,88,71,44,30.47,30.33,6,1,9,0.00
2013-1-11,53,48,44,50,41,30,90,78,55,30.39,30.07,3,0,5,0.20
2013-1-12,67,54,52,59,52,49,93,91,76,30.11,30.03,2,0,2,0.00
2013-1-13,77,65,55,60,56,52,92,75,51,30.08,29.98,4,1,8,0.01
2013-1-14,70,63,58,60,56,53,88,80,69,30.10,30.00,4,0,7,0.00
2013-1-15,60,46,44,56,43,41,91,89,86,30.18,30.00,7,1,10,0.01
2013-1-16,50,47,45,48,44,42,92,91,90,30.00,29.90,3,0,5,0.15
2013-1-17,51,46,32,49,44,29,92,91,87,30.04,29.84,9,1,16,0.98
2013-1-18,50,36,26,35,28,21,91,75,38,30.47,30.05,4,0,8,0.30
2013-1-19,56,36,23,33,24,17,84,65,26,30.45,30.08,4,0,6,0.00
2013-1-20,67,47,33,35,30,22,80,57,23,30.08,29.89,4,1,7,0.00
2013-1-21,63,42,27,36,25,13,86,57,21,30.02,29.78,5,1,10,0.00
2013-1-22,41,32,20,35,5,-9,97,36,17,30.22,29.87,7,1,11,0.00
2013-1-23,41,27,15,12,5,-7,66,43,18,30.32,29.99,4,1,9,0.00
2013-1-24,38,30,17,22,11,-2,70,47,24,30.46,29.88,8,1,14,0.00
2013-1-25,28,23,16,22,11,-3,79,62,30,30.47,30.03,4,0,10,0.01
2013-1-26,35,29,25,29,24,19,85,80,78,30.34,30.01,2,0,3,0.01
2013-1-27,43,30,24,28,22,19,84,73,53,30.54,30.32,5,0,8,0.01
2013-1-28,51,40,26,43,32,20,82,73,55,30.45,30.14,4,1,8,0.01
2013-1-29,75,59,47,55,49,41,86,72,48,30.15,30.01,4,1,6,0.00
2013-1-30,74,67,59,61,58,54,87,74,61,30.01,29.32,10,4,19,0.01
2013-1-31,70,48,30,61,28,8,84,51,21,29.95,29.30,9,3,20,0.22
2013-2-1,42,34,22,25,9,-8,70,40,18,30.32,29.81,7,2,11,0.00
2013-2-2,45,31,15,33,8,-4,76,43,18,30.34,29.96,6,1,9,0.00
2013-2-3,52,41,28,35,26,18,83,61,29,29.96,29.78,8,1,10,0.01
2013-2-4,50,37,23,25,18,10,76,51,24,30.07,29.91,4,1,7,0.00
2013-2-5,63,46,34,33,28,23,75,54,26,29.94,29.80,4,1,7,0.00
2013-2-6,68,44,28,40,25,9,84,58,14,30.23,29.89,4,0,8,0.00
2013-2-7,50,41,32,41,35,28,92,79,63,30.27,29.91,7,1,12,0.39
2013-2-8,58,46,40,44,39,28,94,79,57,29.95,29.70,6,1,11,0.51
2013-2-9,57,39,26,30,20,7,82,55,18,30.29,29.95,8,1,11,0.00
2013-2-10,55,38,23,36,22,9,84,58,19,30.43,30.15,6,1,9,0.01
2013-2-11,62,55,44,58,51,37,94,86,73,30.16,29.84,4,1,9,0.02
2013-2-12,63,53,44,52,35,14,86,56,18,30.01,29.83,5,1,9,0.00
2013-2-13,48,46,43,46,43,37,94,88,74,29.89,29.54,4,1,6,0.27
2013-2-14,54,40,29,38,31,26,92,73,43,30.01,29.75,4,0,6,0.00
2013-2-15,66,43,27,39,29,22,89,65,24,30.02,29.86,4,0,7,0.00
2013-2-16,43,36,31,36,32,28,92,84,67,29.91,29.74,3,0,8,0.20
2013-2-17,39,30,21,28,14,-3,92,59,21,30.21,29.82,8,1,13,0.06
2013-2-18,54,34,16,24,13,-10,77,49,18,30.35,30.20,4,1,7,0.00
2013-2-19,54,43,30,50,36,22,91,77,54,30.20,29.77,7,1,15,0.05
2013-2-20,55,40,29,32,18,5,89,51,17,30.07,29.87,6,1,9,0.00
2013-2-21,58,40,23,27,17,8,75,46,18,30.20,30.03,4,1,8,0.00
2013-2-22,40,36,31,33,29,19,87,76,45,30.29,30.06,5,0,8,0.38
2013-2-23,43,40,36,42,38,33,94,91,87,30.07,29.73,3,0,6,0.53
2013-2-24,65,49,35,48,38,24,95,71,26,29.97,29.71,4,1,11,0.17
2013-2-25,43,36,30,32,23,18,83,61,42,30.16,29.96,4,1,11,0.00
2013-2-26,58,45,32,56,41,24,95,85,62,30.08,29.49,8,2,14,0.69
2013-2-27,63,50,38,45,38,30,96,70,33,29.70,29.53,4,1,11,0.01
2013-2-28,50,40,30,38,28,23,92,67,40,29.78,29.61,5,1,8,0.00
2013-3-1,53,39,27,33,26,21,84,61,34,29.84,29.74,4,0,8,0.00
2013-3-2,53,40,28,29,22,16,77,53,29,29.84,29.73,5,1,8,0.00
2013-3-3,50,37,27,19,16,11,65,45,25,29.90,29.75,5,1,8,0.00
2013-3-4,53,36,23,17,10,3,63,40,17,30.03,29.88,7,1,10,0.00
2013-3-5,55,41,27,41,31,16,91,71,30,30.02,29.51,5,1,8,0.32
2013-3-6,44,40,36,42,32,26,93,74,55,29.93,29.40,8,2,17,0.01
2013-3-7,52,41,30,32,26,22,82,58,39,30.15,29.92,6,1,9,0.00
2013-3-8,59,43,28,27,22,14,74,49,21,30.20,30.05,6,1,10,0.00
2013-3-9,65,45,30,32,24,17,79,51,20,30.25,30.16,5,1,8,0.00
2013-3-10,68,47,27,40,22,6,88,52,12,30.26,30.14,5,1,8,0.00
2013-3-11,72,54,34,50,42,28,90,66,41,30.19,29.89,8,1,13,0.00
2013-3-12,74,62,48,62,54,35,93,76,53,29.89,29.66,6,2,11,0.37
2013-3-13,61,47,32,39,25,14,87,49,20,30.05,29.86,6,1,11,0.00
2013-3-14,56,40,26,22,14,7,71,41,18,30.16,30.01,5,1,12,0.00
2013-3-15,64,45,25,34,23,11,82,48,21,30.11,29.82,5,1,8,0.00
2013-3-16,80,62,47,48,42,33,70,52,29,29.83,29.57,5,2,9,0.00
2013-3-17,57,51,40,51,43,36,90,75,58,30.12,29.75,7,2,11,0.00
2013-3-18,43,40,37,42,39,36,98,95,89,30.14,29.81,6,1,12,0.00
2013-3-19,70,52,40,48,32,8,99,62,13,29.94,29.73,6,1,9,0.09
2013-3-20,57,45,31,54,14,4,97,35,17,30.04,29.72,4,1,7,0.00
2013-3-21,49,38,28,32,17,0,83,48,18,29.89,29.64,8,1,11,0.00
2013-3-22,53,36,19,21,11,2,72,42,18,30.01,29.88,4,1,8,0.00
2013-3-23,57,42,29,32,24,11,79,54,21,29.98,29.83,4,0,6,0.00
2013-3-24,40,37,30,38,34,26,97,88,77,29.87,29.49,8,1,13,0.70
2013-3-25,50,40,35,39,30,20,97,73,36,29.72,29.46,7,1,12,0.00
2013-3-26,54,42,29,30,26,22,79,54,32,30.01,29.72,4,1,8,0.01
2013-3-27,56,42,27,31,21,11,85,49,22,30.14,30.01,7,1,13,0.00
2013-3-28,60,43,28,30,20,11,81,48,20,30.22,30.06,8,1,10,0.00
2013-3-29,63,44,27,35,22,14,86,50,19,30.26,30.10,5,1,8,0.00
2013-3-30,69,50,31,42,30,16,90,56,18,30.17,30.01,4,1,9,0.00
2013-3-31,68,56,47,56,49,40,94,78,62,30.04,29.72,5,1,10,0.41
2013-4-1,76,61,52,56,45,31,96,64,25,29.89,29.72,6,1,8,0.00
2013-4-2,64,49,33,39,24,11,84,47,16,30.09,29.88,6,1,10,0.00
2013-4-3,63,48,36,34,23,9,85,46,16,30.23,30.06,8,1,9,0.00
2013-4-4,51,42,38,40,32,25,97,71,41,30.30,29.84,7,2,11,0.73
2013-4-5,65,48,39,47,42,38,99,83,47,29.94,29.77,5,1,8,0.04
2013-4-6,66,50,36,43,30,15,97,57,19,30.23,29.93,6,1,13,0.00
2013-4-7,74,54,32,48,36,28,91,57,28,30.23,30.04,5,1,10,0.00
2013-4-8,81,66,51,57,51,46,94,62,33,30.11,29.98,6,1,9,0.00
2013-4-9,87,72,57,60,55,50,93,61,33,30.11,29.98,5,1,8,0.00
2013-4-10,90,75,59,62,57,53,88,59,33,30.03,29.86,8,2,11,0.00
2013-4-11,86,72,61,64,59,55,91,66,39,29.94,29.73,6,2,9,0.00
2013-4-12,83,71,61,70,64,55,93,78,61,29.77,29.54,8,2,11,0.43
2013-4-13,77,63,49,55,42,32,81,53,24,29.94,29.67,5,1,8,0.00
2013-4-14,84,66,45,77,43,20,94,55,14,30.04,29.93,5,0,8,0.00
2013-4-15,73,65,59,57,54,47,83,68,53,30.16,29.97,7,1,11,0.00
2013-4-16,77,64,54,60,56,52,95,80,51,30.25,30.13,3,0,6,0.00
2013-4-17,87,70,54,65,59,52,95,73,43,30.17,30.03,4,0,5,0.00
2013-4-18,83,70,58,64,58,55,92,68,44,30.14,29.23,4,1,9,0.00
2013-4-19,84,72,64,67,64,58,96,79,54,29.99,29.67,8,2,14,0.31
2013-4-20,65,55,44,64,43,28,96,68,30,30.20,29.74,6,1,8,19.12
2013-4-21,64,51,39,44,38,35,96,67,41,30.42,30.20,6,1,14,0.00
2013-4-22,62,49,35,46,39,31,90,72,48,30.43,30.19,8,1,14,0.02
2013-4-23,66,54,47,49,46,44,93,77,53,30.20,30.05,4,1,9,0.01
2013-4-24,80,62,44,57,50,42,96,70,42,30.09,29.90,4,1,8,0.00
2013-4-25,70,61,50,57,48,41,88,66,45,30.22,29.94,5,0,8,0.00
2013-4-26,76,59,44,54,41,26,95,61,21,30.36,30.21,4,0,9,0.00
2013-4-27,76,63,50,52,44,35,85,57,29,30.32,30.19,4,0,5,0.00
2013-4-28,64,58,54,55,48,40,92,70,51,30.22,30.04,3,0,4,0.00
2013-4-29,69,61,54,66,59,52,96,93,85,30.04,29.90,2,0,4,0.24
2013-4-30,66,60,56,60,58,54,97,93,81,30.10,29.93,2,0,5,0.01
2013-5-1,61,59,57,58,56,55,94,91,88,30.26,30.08,7,1,15,0.02
2013-5-2,63,59,52,57,55,48,93,86,78,30.28,30.18,6,1,10,0.00
2013-5-3,70,58,48,56,48,42,96,74,44,30.21,30.10,6,1,14,0.00
2013-5-4,64,56,50,52,48,43,87,77,63,30.16,30.02,7,2,13,0.02
2013-5-5,60,55,49,56,51,46,90,85,78,30.05,29.93,8,2,12,0.02
2013-5-6,68,61,56,64,58,54,95,92,82,29.95,29.76,6,1,9,0.51
2013-5-7,72,61,51,61,54,46,97,80,44,29.89,29.78,3,0,9,0.01
2013-5-8,72,60,49,61,55,47,96,83,60,29.95,29.85,2,0,4,0.19
2013-5-9,80,65,54,64,57,52,97,78,48,30.00,29.90,3,0,5,0.00
2013-5-10,87,71,55,65,59,53,94,69,40,30.00,29.87,4,0,7,0.00
2013-5-11,85,73,66,66,62,58,94,70,49,29.91,29.72,3,1,6,0.02
2013-5-12,77,66,51,64,53,38,94,67,39,29.96,29.71,4,0,6,0.01
2013-5-13,70,57,47,45,38,30,76,55,26,30.11,29.95,4,0,7,0.00
2013-5-14,71,57,38,47,39,29,92,58,26,30.19,30.01,4,0,6,0.00
2013-5-15,87,71,52,61,54,43,76,59,41,30.03,29.81,3,1,5,0.00
2013-5-16,88,75,63,66,59,53,87,61,40,29.91,29.82,3,0,5,0.00
2013-5-17,88,74,60,69,60,55,91,66,37,30.02,29.90,4,0,6,0.00
2013-5-18,77,70,64,70,65,61,93,85,70,30.09,30.00,2,0,4,0.27
2013-5-19,72,68,66,67,65,64,94,90,82,30.10,30.00,2,0,4,0.15
2013-5-20,72,72,72,67,67,67,82,82,82,30.08,29.97,0,0,0,0.15
2013-5-21,81,74,69,71,68,65,90,81,72,29.88,29.82,3,0,6,0.15
2013-5-22,83,75,69,69,66,64,92,77,56,29.90,29.78,4,0,8,0.09
2013-5-23,86,72,68,70,66,63,91,85,49,29.85,29.69,4,0,8,0.58
2013-5-24,70,65,49,66,57,40,91,77,51,30.05,29.67,7,0,9,0.01
2013-5-25,71,57,42,47,42,36,87,60,33,30.14,29.99,4,0,6,0.00
2013-5-26,73,59,46,50,45,38,85,64,32,30.15,30.03,2,0,4,0.00
2013-5-27,81,65,47,58,50,45,93,65,32,30.16,30.03,4,0,6,0.00
2013-5-28,85,72,57,66,59,52,85,67,48,30.14,30.01,2,0,5,0.00
2013-5-29,87,74,62,66,62,58,90,67,46,30.12,30.03,3,0,4,0.00
2013-5-30,87,75,61,68,62,58,91,68,42,30.15,30.04,2,0,4,0.00
2013-5-31,88,76,65,70,64,59,92,70,44,30.11,29.97,3,0,5,0.00
2013-6-1,89,78,68,69,65,62,90,68,46,30.02,29.89,5,0,7,0.00
2013-6-2,87,78,68,68,65,61,86,66,48,29.94,29.77,4,1,5,0.00
2013-6-3,79,74,72,73,69,66,89,86,74,29.84,29.70,2,0,4,0.20
2013-6-4,78,73,64,70,66,58,88,79,53,29.98,29.79,4,0,7,0.20
2013-6-5,82,70,59,62,58,54,92,69,43,30.02,29.89,4,0,7,0.00
2013-6-6,76,70,64,71,64,55,90,83,66,29.93,29.71,5,0,10,0.47